When you browse on this site, cookies collect data to enhance your experience and personalize the content and advertising you see.
Visit our Privacy Policy to learn more. By continuing to use the site, you agree to this use of cookies and data.
  • In Spain
  • List of Countries
  • For 7 days
  • Water Temperature
  • Weather Map
  • Weather Widgets
  • user-avatar
    Login

    Hourly Weather Druzhba

    Today, 4 June, Thursday

    Time Temperature Precipitation Wind Pressure Humidity
    00:00 +11°C° 0.1 mm 1 mps 737 mmHg 88%
    01:00 +10°C° 0.1 mm 1 mps 737 mmHg 89%
    02:00 +10°C° 0.1 mm 1 mps 737 mmHg 90%
    03:00 +9°C° 0.5 mm 2 mps 737 mmHg 92%
    04:00 +10°C° 0.5 mm 2 mps 737 mmHg 95%
    05:00 +10°C° 0.5 mm 3 mps 737 mmHg 97%
    06:00 +10°C° 1.1 mm 2 mps 737 mmHg 96%
    07:00 +10°C° 1.1 mm 2 mps 737 mmHg 96%
    08:00 +10°C° 1.1 mm 2 mps 737 mmHg 96%
    09:00 +12°C° 0.5 mm 2 mps 737 mmHg 92%
    10:00 +13°C° 0.5 mm 2 mps 737 mmHg 88%
    11:00 +13°C° 0.5 mm 3 mps 737 mmHg 84%
    12:00 +14°C° 0.4 mm 4 mps 738 mmHg 79%
    13:00 +15°C° 0.4 mm 4 mps 738 mmHg 75%
    14:00 +16°C° 0.4 mm 5 mps 738 mmHg 70%
    15:00 +16°C° 0.2 mm 5 mps 738 mmHg 71%
    16:00 +16°C° 0.2 mm 5 mps 738 mmHg 73%
    17:00 +16°C° 0.2 mm 5 mps 738 mmHg 75%
    18:00 +15°C° 0.5 mm 4 mps 738 mmHg 79%
    19:00 +13°C° 0.5 mm 4 mps 738 mmHg 84%
    20:00 +12°C° 0.5 mm 3 mps 738 mmHg 89%
    21:00 +11°C° 0.1 mm 3 mps 738 mmHg 91%
    22:00 +11°C° 0.1 mm 4 mps 738 mmHg 93%
    23:00 +10°C° 0.1 mm 4 mps 738 mmHg 94%

    Tomorrow, 5 June, Friday

    Time Temperature Precipitation Wind Pressure Humidity
    00:00 +10°C° 0 mm 4 mps 738 mmHg 95%
    01:00 +10°C° 0 mm 4 mps 738 mmHg 95%
    02:00 +10°C° 0 mm 4 mps 739 mmHg 95%
    03:00 +10°C° 0.1 mm 4 mps 738 mmHg 95%
    04:00 +10°C° 0.1 mm 5 mps 738 mmHg 95%
    05:00 +10°C° 0.1 mm 5 mps 738 mmHg 95%
    06:00 +10°C° 1 mm 5 mps 738 mmHg 95%
    07:00 +12°C° 1 mm 5 mps 738 mmHg 95%
    08:00 +12°C° 1 mm 5 mps 739 mmHg 95%
    09:00 +13°C° 1.1 mm 5 mps 739 mmHg 94%
    10:00 +13°C° 1.1 mm 5 mps 739 mmHg 92%
    11:00 +14°C° 1.1 mm 5 mps 739 mmHg 90%
    12:00 +15°C° 0.1 mm 4 mps 739 mmHg 88%
    13:00 +17°C° 0.1 mm 4 mps 739 mmHg 85%
    14:00 +18°C° 0.1 mm 3 mps 739 mmHg 83%
    15:00 +18°C° 0.3 mm 3 mps 739 mmHg 83%
    16:00 +19°C° 0.3 mm 3 mps 739 mmHg 83%
    17:00 +19°C° 0.3 mm 3 mps 739 mmHg 83%
    18:00 +18°C° 0.3 mm 3 mps 739 mmHg 87%
    19:00 +17°C° 0.3 mm 3 mps 739 mmHg 91%
    20:00 +16°C° 0.3 mm 3 mps 740 mmHg 95%
    21:00 +16°C° 0.1 mm 3 mps 740 mmHg 95%
    22:00 +14°C° 0.1 mm 3 mps 740 mmHg 95%
    23:00 +15°C° 0.1 mm 2 mps 740 mmHg 95%

    Day after tomorrow, 6 June, Saturday

    Time Temperature Precipitation Wind Pressure Humidity
    00:00 +14°C° 0 mm 3 mps 741 mmHg 95%
    01:00 +14°C° 0 mm 3 mps 741 mmHg 94%
    02:00 +13°C° 0 mm 3 mps 741 mmHg 94%
    03:00 +14°C° 0 mm 3 mps 741 mmHg 95%
    04:00 +14°C° 0 mm 3 mps 741 mmHg 95%
    05:00 +14°C° 0 mm 3 mps 742 mmHg 96%
    06:00 +17°C° 0 mm 3 mps 742 mmHg 94%
    07:00 +18°C° 0 mm 4 mps 742 mmHg 91%
    08:00 +20°C° 0 mm 4 mps 743 mmHg 88%
    09:00 +21°C° 0.1 mm 5 mps 743 mmHg 85%
    10:00 +22°C° 0.1 mm 5 mps 743 mmHg 81%
    11:00 +23°C° 0.1 mm 6 mps 743 mmHg 78%
    12:00 +24°C° 0.2 mm 6 mps 743 mmHg 76%
    13:00 +24°C° 0.2 mm 6 mps 743 mmHg 75%
    14:00 +26°C° 0.2 mm 6 mps 744 mmHg 73%
    15:00 +24°C° 0.1 mm 6 mps 744 mmHg 76%
    16:00 +25°C° 0.1 mm 5 mps 744 mmHg 79%
    17:00 +23°C° 0.1 mm 5 mps 744 mmHg 82%
    18:00 +22°C° 0 mm 4 mps 744 mmHg 85%
    19:00 +20°C° 0 mm 4 mps 744 mmHg 88%
    20:00 +19°C° 0 mm 3 mps 744 mmHg 91%
    21:00 +18°C° 0 mm 3 mps 744 mmHg 92%
    22:00 +18°C° 0 mm 3 mps 745 mmHg 92%
    23:00 +17°C° 0 mm 3 mps 745 mmHg 93%

    7 June, Sunday

    Time Temperature Precipitation Wind Pressure Humidity
    00:00 +17°C° 0 mm 3 mps 745 mmHg 93%
    01:00 +16°C° 0 mm 3 mps 745 mmHg 92%
    02:00 +16°C° 0 mm 3 mps 745 mmHg 92%
    03:00 +16°C° 0 mm 3 mps 745 mmHg 92%
    04:00 +16°C° 0 mm 3 mps 745 mmHg 92%
    05:00 +16°C° 0 mm 3 mps 746 mmHg 91%
    06:00 +18°C° 0 mm 3 mps 746 mmHg 88%
    07:00 +19°C° 0 mm 3 mps 746 mmHg 85%
    08:00 +21°C° 0 mm 3 mps 747 mmHg 81%
    09:00 +22°C° 0 mm 4 mps 747 mmHg 77%
    10:00 +23°C° 0 mm 4 mps 747 mmHg 73%
    11:00 +26°C° 0 mm 4 mps 747 mmHg 69%
    12:00 +26°C° 0 mm 4 mps 747 mmHg 68%
    13:00 +26°C° 0 mm 4 mps 747 mmHg 67%
    14:00 +26°C° 0 mm 4 mps 747 mmHg 67%
    15:00 +26°C° 0 mm 4 mps 747 mmHg 70%
    16:00 +26°C° 0 mm 3 mps 747 mmHg 73%
    17:00 +26°C° 0 mm 3 mps 746 mmHg 76%
    18:00 +24°C° 0 mm 3 mps 747 mmHg 80%
    19:00 +21°C° 0 mm 2 mps 747 mmHg 84%
    20:00 +19°C° 0 mm 2 mps 747 mmHg 89%
    21:00 +19°C° 0 mm 2 mps 747 mmHg 90%
    22:00 +18°C° 0 mm 2 mps 747 mmHg 91%
    23:00 +18°C° 0 mm 3 mps 747 mmHg 93%

    8 June, Monday

    Time Temperature Precipitation Wind Pressure Humidity
    00:00 +18°C° 0 mm 3 mps 747 mmHg 93%
    01:00 +18°C° 0 mm 3 mps 747 mmHg 93%
    02:00 +17°C° 0 mm 3 mps 747 mmHg 94%
    03:00 +18°C° 0 mm 3 mps 747 mmHg 93%
    04:00 +18°C° 0 mm 3 mps 747 mmHg 93%
    05:00 +18°C° 0 mm 3 mps 746 mmHg 92%
    06:00 +20°C° 0 mm 3 mps 747 mmHg 88%
    07:00 +21°C° 0 mm 4 mps 747 mmHg 84%
    08:00 +23°C° 0 mm 4 mps 747 mmHg 80%
    09:00 +25°C° 0 mm 5 mps 747 mmHg 76%
    10:00 +26°C° 0 mm 5 mps 747 mmHg 71%
    11:00 +27°C° 0 mm 6 mps 747 mmHg 67%
    12:00 +27°C° 0 mm 6 mps 746 mmHg 66%
    13:00 +28°C° 0 mm 6 mps 746 mmHg 66%
    14:00 +28°C° 0 mm 6 mps 746 mmHg 65%
    15:00 +28°C° 0 mm 5 mps 746 mmHg 69%
    16:00 +27°C° 0 mm 4 mps 746 mmHg 72%
    17:00 +27°C° 0 mm 4 mps 745 mmHg 76%
    18:00 +26°C° 0 mm 4 mps 745 mmHg 80%
    19:00 +23°C° 0 mm 4 mps 745 mmHg 84%
    20:00 +22°C° 0 mm 4 mps 745 mmHg 88%
    21:00 +21°C° 0 mm 4 mps 745 mmHg 88%
    22:00 +21°C° 0 mm 4 mps 746 mmHg 89%
    23:00 +20°C° 0 mm 4 mps 746 mmHg 90%

    9 June, Tuesday

    Time Temperature Precipitation Wind Pressure Humidity
    00:00 +20°C° 0 mm 4 mps 746 mmHg 88%
    01:00 +19°C° 0 mm 4 mps 746 mmHg 87%
    02:00 +19°C° 0 mm 4 mps 746 mmHg 86%
    03:00 +19°C° 0 mm 4 mps 746 mmHg 87%
    04:00 +19°C° 0 mm 4 mps 746 mmHg 88%
    05:00 +19°C° 0 mm 4 mps 746 mmHg 88%
    06:00 +20°C° 0 mm 4 mps 746 mmHg 85%
    07:00 +22°C° 0 mm 4 mps 746 mmHg 82%
    08:00 +25°C° 0 mm 4 mps 746 mmHg 78%
    09:00 +26°C° 0.2 mm 5 mps 746 mmHg 74%
    10:00 +27°C° 0.2 mm 5 mps 746 mmHg 70%
    11:00 +28°C° 0.2 mm 6 mps 747 mmHg 66%
    12:00 +28°C° 0.3 mm 5 mps 746 mmHg 66%
    13:00 +28°C° 0.3 mm 5 mps 746 mmHg 66%
    14:00 +29°C° 0.3 mm 5 mps 746 mmHg 65%
    15:00 +28°C° 0.4 mm 5 mps 746 mmHg 69%
    16:00 +28°C° 0.4 mm 4 mps 745 mmHg 73%
    17:00 +27°C° 0.4 mm 4 mps 745 mmHg 77%
    18:00 +26°C° 0.2 mm 4 mps 745 mmHg 81%
    19:00 +24°C° 0.2 mm 3 mps 745 mmHg 85%
    20:00 +22°C° 0.2 mm 3 mps 745 mmHg 88%
    21:00 +21°C° 0 mm 3 mps 745 mmHg 90%
    22:00 +21°C° 0 mm 3 mps 745 mmHg 91%
    23:00 +20°C° 0 mm 4 mps 745 mmHg 92%
    Show more